Location: Clyde
(45.1830°S, 169.3170°E)
Time: 18:52:04
(UTC+13:00)

ISS - Pass Details

Date: 30 January 2019
Orbit: 403 x 411 km, 51.6° (Epoch: 21 February)

Event Time Altitude Azimuth Distance (km) Brightness Sun altitude
Exits shadow 05:24:37 11° 350° (N) 1,402 -1.6 -11.2°
Maximum altitude 05:27:06 24° 43° (NE) 919 -2.0 -10.8°
Drops below altitude 10° 05:29:52 10° 98° (E) 1,496 0.0 -10.4°
Sets 05:32:13 0° 112° (ESE) 2,363 1.7 -10.1°
